FW1313 Weather Reports


Display with metric or nautical units.
time (UTC)temp
F
wind
direction
speed
MPH
gust
MPH
rain 1hr
in
rain 24hr
in
rain mn
in
humidity
%
barometer
mb
20260904133408 55 93 0.0 0.0 0.00 0.00 0.00 32 1011.1
20260904130408 55 85 0.0 0.0 0.00 0.00 0.00 30 1011.0
20260904123408 54 89 0.0 0.0 0.00 0.00 0.00 45 1010.8
20260904120408 54 96 0.0 0.0 0.00 0.00 0.00 44 1010.8
20260904113408 53 102 0.0 0.0 0.00 0.00 0.00 46 1010.9
20260904110411 53 96 0.0 0.0 0.00 0.00 0.00 56 1011.1
20260904103408 52 106 0.0 0.0 0.00 0.00 0.00 73 1011.4
20260904100408 52 108 0.0 0.0 0.00 0.00 0.00 80 1011.5
20260904093408 52 132 0.0 0.0 0.00 0.00 0.00 77 1011.8
20260904090411 53 114 0.0 0.0 0.00 0.00 0.00 73 1012.2
20260904083408 54 131 0.0 1.0 0.00 0.00 0.00 78 1012.7
20260904080408 55 111 0.0 1.0 0.00 0.00 0.00 72 1013.2
20260904073411 54 108 0.0 0.0 0.00 0.00 0.00 76 1013.5
20260904070411 55 115 0.0 0.0 0.00 0.00 0.00 74 1013.9
20260904063408 55 114 0.0 0.0 0.00 0.00 0.00 70 1014.2
20260904060411 56 132 0.0 0.0 0.00 0.00 0.00 70 1014.6
20260904053408 57 127 0.0 0.0 0.00 0.00 0.00 64 1014.9
20260904050408 57 122 0.0 0.0 0.00 0.00 0.00 58 1015.1
20260904043408 55 97 0.0 0.0 0.00 0.00 0.00 75 1015.2
20260904040408 58 103 0.0 0.0 0.00 0.00 0.00 60 1015.0
20260904033408 57 91 0.0 0.0 0.00 0.00 0.00 62 1014.9
20260904030411 55 271 0.0 1.0 0.00 0.00 0.00 80 1014.8
20260904023408 55 121 0.0 0.0 0.00 0.00 0.00 79 1015.0
20260904020408 58 152 0.0 0.0 0.00 0.00 0.00 71 1015.3
20260904013408 61 162 0.0 0.0 0.00 0.00 0.00 60 1015.3
20260904010408 62 60 0.0 0.0 0.00 0.00 0.00 52 1015.3
20260904003411 63 215 0.0 0.0 0.00 0.00 0.00 46 1015.2
20260904000410 65 160 0.0 0.0 0.00 0.00 0.00 42 1015.4
20260903233408 66 200 0.0 0.0 0.00 0.00 0.00 40 1015.4
20260903230411 66 134 0.0 0.0 0.00 0.00 0.00 38 1015.6
20260903223411 67 172 0.0 0.0 0.00 0.00 0.00 34 1015.5
20260903220411 68 198 0.0 1.0 0.00 0.00 0.00 33 1015.6
20260903213408 68 121 0.0 0.0 0.00 0.00 0.00 30 1015.4
20260903210408 69 143 0.0 1.0 0.00 0.00 0.00 28 1015.3
20260903203408 71 168 0.0 0.0 0.00 0.00 0.00 29 1014.9
20260903200408 71 183 0.0 0.0 0.00 0.00 0.00 31 1014.8
20260903193408 71 163 0.0 0.0 0.00 0.00 0.00 33 1014.7
20260903190408 71 137 0.0 0.0 0.00 0.00 0.00 31 1014.8
20260903183408 71 228 0.0 0.0 0.00 0.00 0.00 27 1014.8
20260903180408 69 122 0.0 0.0 0.00 0.00 0.00 22 1014.6
20260903173408 67 162 0.0 0.0 0.00 0.00 0.00 24 1014.6
20260903170408 64 141 0.0 0.0 0.00 0.00 0.00 23 1014.4
20260903163408 61 129 0.0 0.0 0.00 0.00 0.00 24 1014.1
20260903160408 59 109 0.0 0.0 0.00 0.00 0.00 22 1014.0
20260903153408 58 123 0.0 0.0 0.00 0.00 0.00 22 1013.9
20260903150408 58 169 0.0 0.0 0.00 0.00 0.00 25 1013.8
20260903143408 57 93 0.0 0.0 0.00 0.00 0.00 21 1013.6
20260903140408 57 105 0.0 0.0 0.00 0.00 0.00 19 1013.3